User: anonymous   Login
Location: Baili�vre
(50.0696°N, 4.2409°E)
Time: 09:48:29
(UTC+00:00)
Language:

Thor Agena Rocket - Orbit

View from above orbital plane
View from above orbital plane
View from above satellite
View from above satellite

Ground track
Ground track

The orbit data is extracted from the following two-line orbital elements,

1   733U 64002A   20293.94803434 +.00000010 +00000-0 +21396-4 0  9992
2   733 098.9947 190.2299 0032953 228.0754 131.7618 14.32408526957062
Epoch (UTC): 19 October 2020 22:45:10
Eccentricity: 0.0032953
inclination: 98.9947°
perigee height: 760 km
apogee height: 807 km
right ascension of ascending node: 190.2299°
argument of perigee: 228.0754°
revolutions per day: 14.32408526
mean anomaly at epoch: 131.7618°
orbit number at epoch: 95706

The dashed part of the orbit path shows where the satellite is in the earth's shadow,  

DLR